Ashland, ME

4:35 AM EDT on September 25, 2016 (GMT -0400)
Clayton Lake

Weather History for K40B - November, 2011

Change the Weather History Date:

Monday, November 7, 2011

  Actual Average Record
Temperature  
Mean Temperature 40 °F -  
Max Temperature 55 °F 37 °F 55 °F (2011)
Min Temperature 27 °F 22 °F 3 °F (2001)
Degree Days  
Heating Degree Days 24    
Moisture  
Dew Point 29 °F    
Average Humidity 66    
Maximum Humidity 86    
Minimum Humidity 33    
Precipitation  
Precipitation 0.01 in - - ()
Sea Level Pressure  
Sea Level Pressure 30.11 in    
Wind  
Wind Speed 2 mph (SW)    
Max Wind Speed 10 mph    
Max Gust Speed 26 mph    
Averages and records for this station are not official NWS values.
T = Trace of Precipitation, MM = Missing Value Source: NWS Daily Summary

Daily Weather History Graph

Daily Weather History Graph

Search for Another Location

Airport or City:

Trip Planner

Search our weather history database for the weather conditions in past years. The results will help you decide how hot, cold, wet, or windy it might be!

Date:

Astronomy

Nov. 07, 2011 Rise Set
Actual Time 6:28 AM EST 4:14 PM EST
Civil Twilight 5:56 AM EST 4:46 PM EST
Nautical Twilight 5:20 AM EST 5:22 PM EST
Astronomical Twilight 4:44 AM EST 5:58 PM EST
Moon 2:30 PM EST (11/7) 3:19 AM EST (11/7)
Length of Visible Light 10h 50m
Length of Day
9h 46m
Waxing Gibbous, 91% of the Moon is Illuminated
Nov 7
Waxing Gibbous
Nov 10
Full
Nov 18
Last Quarter
Nov 25
New
Dec 2
First Quarter

Hourly Weather History & Observations

Time (EST) Temp. Windchill Dew Point Humidity Pressure Visibility Wind Dir Wind Speed Gust Speed Precip Events Conditions
12:25 AM 29.5 °F - 22.1 °F 74% 30.21 in - Calm Calm - N/A   Unknown
1:25 AM 31.1 °F - 21.2 °F 67% 30.21 in - Calm Calm - 0.00 in   Unknown
2:25 AM 30.4 °F - 23.5 °F 76% 30.21 in - Calm Calm - 0.00 in   Unknown
3:25 AM 29.3 °F - 24.3 °F 81% 30.20 in - Calm Calm - N/A   Unknown
4:25 AM 27.5 °F - 23.0 °F 83% 30.21 in - Calm Calm - N/A   Unknown
5:25 AM 28.8 °F - 23.9 °F 82% 30.19 in - Calm Calm - N/A   Unknown
6:25 AM 27.9 °F - 24.3 °F 86% 30.20 in - Calm Calm - N/A   Unknown
7:25 AM 33.3 °F - 24.4 °F 70% 30.20 in - Calm Calm - 0.00 in   Unknown
8:25 AM 43.3 °F - 24.4 °F 47% 30.19 in - Calm Calm - N/A   Unknown
10:25 AM 50.4 °F - 24.3 °F 36% 30.12 in - SW 10.4 mph 21.9 mph N/A   Unknown
11:25 AM 52.9 °F - 24.6 °F 33% 30.09 in - SW 10.4 mph 26.5 mph N/A   Unknown
12:25 PM 54.0 °F - 30.2 °F 40% 30.07 in - SW 8.1 mph 21.9 mph N/A   Unknown
1:25 PM 52.3 °F - 31.8 °F 46% 30.07 in - Variable 3.5 mph 12.7 mph N/A   Unknown
2:25 PM 51.8 °F - 33.3 °F 49% 30.05 in - SSW 8.1 mph 23.0 mph N/A   Unknown
3:25 PM 50.4 °F - 33.8 °F 53% 30.04 in - SSW 10.4 mph 18.4 mph N/A   Unknown
4:25 PM 47.3 °F - 34.0 °F 60% 30.03 in - Variable 2.3 mph - N/A   Unknown
5:25 PM 47.3 °F - 34.9 °F 62% 30.01 in - SSW 6.9 mph 15.0 mph N/A   Unknown
6:25 PM 45.1 °F 42.0 °F 35.4 °F 69% 30.01 in - Variable 5.8 mph 11.5 mph N/A   Unknown
7:25 PM 45.9 °F 42.3 °F 36.7 °F 70% 30.01 in - SSW 6.9 mph 13.8 mph N/A   Unknown
8:25 PM 42.4 °F 40.7 °F 36.1 °F 78% 30.02 in - Variable 3.5 mph - 0.00 in   Unknown
9:25 PM 39.9 °F - 34.9 °F 82% 30.03 in - Calm Calm - N/A   Unknown
10:25 PM 43.0 °F 41.3 °F 37.9 °F 82% 30.02 in - Variable 3.5 mph - N/A   Unknown
11:25 PM 42.4 °F - 38.5 °F 86% 30.03 in - Variable 2.3 mph - N/A   Unknown